Location: Harwich
(41.7160°N, 69.9939°W)
Time: 02:25:16
(UTC+02:00)

AO-27 - Pass Details

Date: 18 September 2024
Orbit: 783 x 796 km, 98.8° (Epoch: 04 October)

Event Time Altitude Azimuth Distance (km) Brightness Sun altitude
Exits shadow 02:16:31 24° 74° (ENE) 1,595 8.8 -17.6°
Maximum altitude 02:17:05 25° 64° (ENE) 1,577 8.8 -17.7°
Drops below altitude 10° 02:21:13 10° 12° (NNE) 2,366 10.2 -18.4°
Sets 02:23:55 0° 359° (N) 3,297 11.2 -18.9°
